User: anonymous   Login
Location: Düngen
(52.0952°N, 10.0219°E)
Time: 12:25:37
(UTC+00:00)
Language:

Cosmos 1943 Rocket - Orbit

View from above orbital plane
View from above orbital plane
View from above satellite
View from above satellite

Ground track
Ground track

The orbit is defined by the following mean orbital elements,

1 19120U          26137.68117922 +.00000000 +00000-0 -48401-4 0 00003
2 19120  71.0146 282.6627 0023679 237.1827 122.7018 14.19625946    02
Epoch (UTC): 17 May 2026 16:20:53
Eccentricity: 0.0023679
inclination: 71.0146°
perigee height: 810 km
apogee height: 844 km
right ascension of ascending node: 282.6627°
argument of perigee: 237.1827°
revolutions per day: 14.19625946
mean anomaly at epoch: 122.7018°

The dashed part of the orbit path shows where the satellite is in the earth's shadow,  

DLR